K5RLW Weather Reports


time (UTC)temp
F
wind
direction
speed
knots
gust
knots
rain 1hr
in
rain 24hr
in
rain mn
in
humidity
%
barometer
mb
20260906224016 98 158 3.5 9.6 0.00 0.00 0.00 39 1012.3
20260906223016 98 135 2.6 11.3 0.00 0.00 0.00 38 1012.4
20260906222036 98 135 2.6 10.4 0.00 0.00 0.00 39 1012.5
20260906221036 98 135 1.7 6.1 0.00 0.00 0.00 38 1012.6
20260906220016 98 135 2.6 9.6 0.00 0.00 0.00 38 1012.6
20260906215016 98 68 2.6 9.6 0.00 0.00 0.00 39 1012.7
20260906214016 99 135 3.5 11.3 0.00 0.00 0.00 38 1012.9
20260906213016 99 113 1.7 5.2 0.00 0.00 0.00 38 1013.0
20260906212016 100 180 1.7 5.2 0.00 0.00 0.00 37 1013.2
20260906211016 100 135 3.5 8.7 0.00 0.00 0.00 37 1013.3
20260906210016 100 135 2.6 9.6 0.00 0.00 0.00 37 1013.4
20260906205036 100 135 4.3 13.9 0.00 0.00 0.00 37 1013.6
20260906204016 100 180 2.6 9.6 0.00 0.00 0.00 37 1013.6
20260906203016 100 135 4.3 10.4 0.00 0.00 0.00 37 1013.7
20260906202015 100 135 3.5 11.3 0.00 0.00 0.00 37 1013.7
20260906201016 100 135 4.3 13.0 0.00 0.00 0.00 38 1013.9
20260906200016 100 135 1.7 7.0 0.00 0.00 0.00 38 1014.0
20260906195016 100 135 2.6 10.4 0.00 0.00 0.00 39 1014.1
20260906194015 99 135 4.3 12.2 0.00 0.00 0.00 39 1014.1
20260906193015 99 158 4.3 10.4 0.00 0.00 0.00 39 1014.3
20260906192015 99 113 1.7 6.1 0.00 0.00 0.00 40 1014.4
20260906191016 99 135 3.5 11.3 0.00 0.00 0.00 39 1014.6
20260906190016 99 135 3.5 7.8 0.00 0.00 0.00 40 1014.6
20260906185036 99 135 4.3 9.6 0.00 0.00 0.00 39 1014.7
20260906184016 99 113 3.5 8.7 0.00 0.00 0.00 40 1014.8
20260906183015 98 135 4.3 12.2 0.00 0.00 0.00 40 1015.0
20260906182036 97 135 2.6 7.8 0.00 0.00 0.00 41 1015.0
20260906181015 97 135 4.3 9.6 0.00 0.00 0.00 42 1015.4
20260906180015 96 135 2.6 10.4 0.00 0.00 0.00 43 1015.4
20260906175016 97 135 2.6 8.7 0.00 0.00 0.00 43 1015.6
20260906174015 97 135 3.5 10.4 0.00 0.00 0.00 43 1015.8
20260906173036 97 135 2.6 8.7 0.00 0.00 0.00 44 1016.1
20260906172015 97 135 2.6 8.7 0.00 0.00 0.00 45 1016.0
20260906171015 96 135 3.5 8.7 0.00 0.00 0.00 46 1016.1
20260906170015 96 135 2.6 10.4 0.00 0.00 0.00 46 1016.3
20260906165015 95 135 1.7 7.8 0.00 0.00 0.00 46 1016.3
20260906164015 95 135 1.7 7.8 0.00 0.00 0.00 48 1016.4
20260906163015 94 135 3.5 8.7 0.00 0.00 0.00 49 1016.4
20260906162015 94 135 2.6 8.7 0.00 0.00 0.00 51 1016.4
20260906161015 93 135 1.7 6.1 0.00 0.00 0.00 53 1016.5
20260906160015 93 23 1.7 7.8 0.00 0.00 0.00 54 1016.4
20260906155035 92 158 1.7 6.1 0.00 0.00 0.00 56 1016.4
20260906154035 91 0.0 0.0 0.00 0.00 0.00 57 1016.5
20260906153017 90 0.0 0.0 0.00 0.00 0.00 58 1016.4
20260906152017 90 0.0 0.0 0.00 0.00 0.00 60 1016.2
20260906151017 88 0.0 1.7 0.00 0.00 0.00 62 1016.1
20260906150017 88 158 0.9 5.2 0.00 0.00 0.00 63 1016.0
20260906145017 87 0.0 0.0 0.00 0.00 0.00 65 1016.0
20260906144017 86 0.0 0.0 0.00 0.00 0.00 67 1015.9
20260906143017 84 0.0 0.0 0.00 0.00 0.00 69 1015.9
20260906142015 83 0.0 0.0 0.00 0.00 0.00 70 1015.9
20260906141017 82 0.0 0.0 0.00 0.00 0.00 73 1015.9
20260906140017 81 0.0 0.0 0.00 0.00 0.00 75 1015.9
20260906135018 80 0.0 0.0 0.00 0.00 0.00 77 1015.8
20260906134017 79 0.0 0.0 0.00 0.00 0.00 80 1015.8
20260906133017 78 0.0 0.0 0.00 0.00 0.00 81 1015.7
20260906132017 77 0.0 0.0 0.00 0.00 0.00 83 1015.7
20260906131017 76 0.0 0.0 0.00 0.00 0.00 84 1015.8
20260906130017 75 0.0 0.0 0.00 0.00 0.00 83 1015.7
20260906125017 75 0.0 0.0 0.00 0.00 0.00 83 1015.6
20260906124017 75 0.0 0.0 0.00 0.00 0.00 83 1015.7
20260906123017 75 0.0 0.0 0.00 0.00 0.00 83 1015.5
20260906122017 75 0.0 0.0 0.00 0.00 0.00 83 1015.3
20260906121017 75 0.0 0.0 0.00 0.00 0.00 82 1015.2
20260906120017 75 0.0 0.0 0.00 0.00 0.00 82 1015.2
20260906115017 75 0.0 0.0 0.00 0.00 0.00 82 1015.1
20260906114017 75 0.0 0.0 0.00 0.00 0.00 82 1015.0
20260906113017 75 0.0 0.0 0.00 0.00 0.00 81 1014.9
20260906112017 75 0.0 0.0 0.00 0.00 0.00 81 1014.9
20260906111037 76 0.0 0.0 0.00 0.00 0.00 81 1014.7
20260906110017 76 0.0 0.0 0.00 0.00 0.00 80 1014.6
20260906105017 76 0.0 0.0 0.00 0.00 0.00 80 1014.6
20260906104017 76 0.0 0.0 0.00 0.00 0.00 80 1014.6
20260906103017 76 0.0 0.0 0.00 0.00 0.00 80 1014.8
20260906102017 77 0.0 0.0 0.00 0.00 0.00 79 1014.7
20260906101017 77 0.0 0.0 0.00 0.00 0.00 79 1014.6
20260906100016 77 0.0 0.0 0.00 0.00 0.00 78 1014.5
20260906095016 77 0.0 0.0 0.00 0.00 0.00 79 1014.5
20260906094017 77 0.0 0.0 0.00 0.00 0.00 78 1014.5
20260906093017 78 0.0 0.0 0.00 0.00 0.00 78 1014.4
20260906092017 78 0.0 0.0 0.00 0.00 0.00 77 1014.1
20260906091016 78 0.0 0.0 0.00 0.00 0.00 77 1014.1
20260906090037 78 0.0 0.0 0.00 0.00 0.00 76 1014.1
20260906085017 79 0.0 0.0 0.00 0.00 0.00 76 1013.8
20260906084016 79 0.0 0.0 0.00 0.00 0.00 76 1013.9
20260906083017 79 0.0 0.0 0.00 0.00 0.00 76 1013.9
20260906082016 79 0.0 0.0 0.00 0.00 0.00 75 1014.0
20260906081016 79 0.0 0.0 0.00 0.00 0.00 75 1014.1
20260906080016 80 0.0 0.0 0.00 0.00 0.00 74 1014.3
20260906075016 80 0.0 0.0 0.00 0.00 0.00 74 1014.5
20260906074517 80 0.0 0.0 0.00 0.00 0.00 73 1014.6
20260906073516 80 0.0 0.0 0.00 0.00 0.00 73 1014.6
20260906072516 80 0.0 0.0 0.00 0.00 0.00 73 1014.4
20260906071516 81 0.0 0.0 0.00 0.00 0.00 72 1014.4
20260906070517 81 0.0 0.0 0.00 0.00 0.00 71 1014.3
20260906065557 81 0.0 0.0 0.00 0.00 0.00 71 1014.5
20260906064516 82 0.0 0.0 0.00 0.00 0.00 70 1014.7
20260906063517 82 0.0 0.0 0.00 0.00 0.00 70 1014.7
20260906062516 82 0.0 0.0 0.00 0.00 0.00 69 1014.7
20260906061516 82 0.0 0.0 0.00 0.00 0.00 69 1014.8
20260906060516 83 0.0 0.0 0.00 0.00 0.00 68 1014.7
20260906055516 83 0.0 0.0 0.00 0.00 0.00 68 1014.8
20260906054517 83 0.0 0.0 0.00 0.00 0.00 68 1014.8
20260906053516 83 0.0 0.0 0.00 0.00 0.00 68 1014.7
20260906052516 84 0.0 0.0 0.00 0.00 0.00 67 1014.8
20260906051516 84 0.0 0.0 0.00 0.00 0.00 66 1015.0
20260906050516 84 0.0 0.0 0.00 0.00 0.00 65 1014.8
20260906045517 85 0.0 0.0 0.00 0.00 0.00 65 1014.7
20260906044517 85 0.0 0.0 0.00 0.00 0.00 64 1014.7
20260906043517 85 0.0 0.0 0.00 0.00 0.00 64 1014.7
20260906042517 86 0.0 0.0 0.00 0.00 0.00 63 1014.6
20260906041517 86 0.0 0.0 0.00 0.00 0.00 62 1014.5
20260906040517 86 0.0 0.0 0.00 0.00 0.00 62 1014.4
20260906035517 86 0.0 0.0 0.00 0.00 0.00 61 1014.5
20260906034517 87 0.0 0.0 0.00 0.00 0.00 60 1014.5
20260906033515 87 0.0 0.0 0.00 0.00 0.00 59 1014.4
20260906032517 87 0.0 0.0 0.00 0.00 0.00 58 1014.5
20260906031517 88 0.0 0.0 0.00 0.00 0.00 57 1014.4
20260906030517 88 0.0 0.0 0.00 0.00 0.00 56 1014.3
20260906025517 89 0.0 0.0 0.00 0.00 0.00 55 1014.3
20260906024517 89 0.0 0.0 0.00 0.00 0.00 54 1014.2
20260906023517 89 0.0 0.0 0.00 0.00 0.00 54 1013.8
20260906022517 90 0.0 0.0 0.00 0.00 0.00 53 1013.7
20260906021517 89 0.0 0.0 0.00 0.00 0.00 53 1013.6
20260906020517 89 0.0 0.0 0.00 0.00 0.00 50 1013.2
20260906015517 89 0.0 0.0 0.00 0.00 0.00 49 1012.9
20260906014517 90 0.0 0.0 0.00 0.00 0.00 49 1012.8
20260906013517 90 0.0 0.0 0.00 0.00 0.00 48 1012.6
20260906012517 91 0.0 0.0 0.00 0.00 0.00 47 1012.5
20260906011517 92 0.0 0.0 0.00 0.00 0.00 46 1012.3
20260906010517 93 0.0 0.0 0.00 0.00 0.00 44 1012.2
20260906005517 93 0.0 0.0 0.00 0.00 0.00 43 1012.4
20260906004517 94 0.0 0.0 0.00 0.00 0.00 42 1012.4
20260906003517 95 0.0 0.0 0.00 0.00 0.00 42 1012.3
20260906002517 95 0.0 0.0 0.00 0.00 0.00 41 1012.3
20260906001516 96 0.0 0.0 0.00 0.00 0.00 40 1012.3
20260906000516 96 0.0 0.0 0.00 0.00 0.00 40 1012.2
20260905235517 96 0.0 0.0 0.00 0.00 0.00 39 1012.2
20260905234517 96 0.0 0.0 0.00 0.00 0.00 38 1012.1
20260905233536 97 135 0.9 5.2 0.00 0.00 0.00 38 1012.2
20260905232517 97 135 2.6 7.8 0.00 0.00 0.00 37 1012.2
20260905231517 97 135 2.6 7.8 0.00 0.00 0.00 37 1012.1
20260905230516 97 135 0.9 4.3 0.00 0.00 0.00 37 1012.1
20260905225517 98 135 0.9 5.2 0.00 0.00 0.00 36 1012.1